Vorticity
6 3 5 7 8 9 3 6 7 7 12 13 19 16 16 20 2 16 5 10 21 3 16 23 -2 -10 -11 13 6 15 21 9 5 8 5 5 6 6 3 5 7 7 3 8 8 12 10 13 11 9 5 6 8 7
2 7 10 5 4 10 9 5 4 6 9 11 19 16 18 16 5 5 5 -2 29 -1 25 25 22 -1 2 3 16 6 10 6 4 11 8 -2 6 4 5 8 5 3 7 7 11 13 10 13 13 10 7 5 7 7
6 9 11 11 9 7 7 4 6 6 4 10 16 16 17 10 8 2 13 -4 11 0 15 14 27 10 1 -5 5 17 8 13 14 11 12 15 9 5 8 6 5 5 8 8 12 5 14 16 18 12 7 6 8 6
31 37 38 36 28 15 6 8 12 2 6 6 13 17 13 8 8 10 -3 18 3 -4 23 13 15 21 -10 -3 6 3 -21 1 20 15 11 4 9 11 6 8 3 5 3 5 11 13 13 14 15 10 8 4 5 6
16 13 12 11 19 30 40 42 21 1 16 4 12 11 12 13 9 5 6 5 -4 -3 16 11 5 17 8 -21 -7 1 -5 25 7 5 4 11 9 5 4 9 6 5 1 6 8 10 12 15 21 16 6 5 6 7
14 30 30 29 24 21 15 19 29 44 -1 12 5 6 16 13 19 1 13 6 -13 29 50 28 5 25 8 4 22 -4 25 12 0 4 2 12 6 5 6 6 4 0 5 7 -1 -5 20 18 19 11 7 4 6 6
4 14 27 46 21 21 18 19 15 47 24 4 3 9 13 15 6 -12 43 103 102 37 31 11 43 11 -2 8 4 4 19 4 0 1 8 10 4 7 7 9 6 -1 12 4 15 8 16 13 11 10 9 6 8 5
32 47 37 32 37 39 26 36 18 39 31 3 7 19 -11 24 120 58 -4 -12 24 15 10 -9 8 7 1 14 16 28 9 2 5 3 6 6 8 10 7 3 0 0 4 8 8 16 7 16 12 10 8 6 7 7
17 52 44 56 53 15 38 25 14 46 24 15 2 24 40 69 -5 4 9 7 29 -4 11 17 35 9 25 6 3 18 5 3 5 5 5 8 11 10 9 5 1 4 7 6 9 19 9 16 11 8 8 6 6 8
3 24 32 60 53 45 22 3 20 43 18 0 38 38 21 -24 -11 -38 -9 34 16 3 28 8 2 15 6 12 13 14 5 1 7 5 2 12 7 9 8 3 1 3 6 3 4 17 11 6 9 6 8 7 5 8
-0 17 30 32 23 14 15 34 40 15 -1 25 31 -9 17 -14 -8 7 36 -20 37 34 -7 -37 7 9 20 16 20 10 -0 4 8 3 6 9 9 14 3 -0 4 6 5 4 4 12 21 7 5 7 15 8 6 7
20 14 22 24 9 20 44 27 13 -3 34 32 16 -21 -24 -23 -9 20 -10 13 33 7 -3 6 -28 15 20 18 11 18 14 11 6 7 9 9 14 6 4 2 6 5 5 4 6 15 21 13 7 10 9 10 8 7
20 7 25 34 40 31 6 36 -37 51 17 16 5 -34 8 7 -28 3 56 10 3 9 -2 -0 17 25 5 3 12 14 6 4 10 6 12 29 7 4 5 11 8 4 4 4 10 14 17 17 15 18 12 12 9 6
21 21 23 12 17 11 17 -35 33 54 8 -5 18 -2 -23 0 62 41 23 13 12 16 18 14 36 11 7 14 20 10 8 8 6 9 13 2 3 2 8 11 4 5 4 10 10 11 16 13 14 19 22 14 6 8
15 13 3 7 16 -4 15 53 51 15 17 -4 3 18 7 -34 -21 -25 -26 1 2 -12 9 21 7 9 12 7 7 3 10 10 10 13 6 5 6 7 10 5 7 6 7 9 9 12 17 23 16 10 12 11 7 7
4 5 12 15 -0 5 36 47 -56 44 -24 -12 20 24 18 16 31 32 17 14 18 17 -3 35 23 1 14 16 9 0 12 11 7 13 6 9 4 11 4 4 4 7 7 8 13 8 7 10 22 17 12 9 7 8
4 14 14 -8 19 30 48 29 -13 10 27 27 27 12 17 13 27 -5 -18 22 17 19 -0 4 5 3 6 8 11 17 7 8 11 1 9 5 10 4 1 4 7 7 5 9 13 14 15 17 15 20 19 14 10 8
10 11 11 9 41 40 52 33 -34 8 38 4 4 10 8 21 11 -14 15 24 -11 5 18 21 23 -1 7 11 11 2 7 12 5 7 8 10 4 1 5 4 4 4 7 13 14 7 7 8 6 7 12 16 16 12
10 10 -8 27 31 -39 3 -11 21 -7 11 4 1 -1 -0 -5 -7 36 -5 3 15 1 25 24 16 21 7 13 5 10 13 9 3 8 4 8 5 7 5 4 6 6 9 10 9 5 1 3 6 7 10 13 16 18
28 28 12 61 12 -32 17 10 31 31 -21 28 14 13 14 9 12 -14 5 8 13 13 14 24 3 1 4 2 17 16 -4 -2 1 11 8 1 12 8 5 4 5 7 7 6 6 7 9 11 9 6 7 7 8 14
0 20 9 50 -34 -21 30 29 18 7 16 14 1 13 20 22 -7 6 15 10 1 18 14 19 17 13 9 15 5 12 5 1 7 11 7 12 6 9 2 3 6 8 7 5 6 7 5 6 8 9 8 8 9 9
28 30 -24 -23 -30 55 51 -8 -9 3 -5 8 -10 -5 -2 6 7 2 8 -1 13 0 -2 4 19 14 12 7 9 11 8 2 5 9 11 4 9 1 2 6 7 7 7 7 6 5 5 5 10 9 9 10 9 8
15 -5 -29 -18 -1 31 24 34 -3 -17 1 6 2 6 0 -2 17 21 13 8 12 14 11 8 11 6 11 9 11 13 4 10 15 9 3 9 3 2 7 7 6 5 8 9 7 5 5 8 9 10 9 8 8 7
-1 9 1 13 17 20 27 24 13 17 -7 1 13 -0 -0 -1 23 17 2 13 2 4 5 19 15 17 19 9 7 13 12 10 10 12 10 2 3 2 4 8 11 10 5 4 4 3 5 6 7 8 8 7 6 9
18 8 -1 18 13 7 11 39 1 -5 9 -14 -27 -11 -2 18 4 4 -10 -11 8 9 8 13 12 12 5 6 12 12 7 8 5 6 4 -0 8 11 8 6 3 3 5 6 6 8 9 6 4 6 8 11 9 10
-18 34 -1 22 19 7 9 4 18 15 12 15 -1 3 27 25 19 25 24 25 18 11 4 23 14 7 13 16 12 10 7 5 6 -1 -1 2 3 6 9 6 3 4 5 7 9 10 10 10 8 8 10 8 10 11
3 11 13 21 28 18 7 6 8 17 17 20 30 22 -3 -5 2 5 19 15 21 22 23 12 6 8 7 7 9 9 11 3 -8 -3 9 11 8 5 4 4 5 7 7 10 11 13 12 11 11 10 10 11 9 9
10 15 14 6 16 24 20 24 19 18 14 15 24 18 18 11 13 25 12 -5 0 3 3 5 6 5 8 12 10 7 2 0 3 4 4 3 3 5 7 8 9 9 8 12 13 12 11 10 11 11 9 8 8 6
17 3 -2 -0 5 13 14 13 13 12 15 16 13 10 5 9 11 20 21 15 17 14 5 8 9 7 6 3 5 8 10 8 6 6 6 6 7 8 8 9 9 9 11 13 12 11 10 9 7 7 7 6 6 8
9 17 13 9 -9 -13 1 4 2 -1 0 1 5 7 7 9 11 8 9 10 8 8 11 12 6 5 9 10 10 11 9 8 8 8 10 9 8 9 9 10 10 10 10 9 8 8 10 9 9 8 7 7 9 11
-1 -2 3 7 10 6 3 1 -7 -5 1 4 5 4 7 6 4 5 10 12 15 16 17 16 14 13 11 9 10 13 14 14 13 12 13 13 12 11 10 9 9 9 8 8 8 8 9 9 8 7 10 9 7 7
2 8 5 7 4 6 9 13 11 6 -0 2 8 6 3 6 6 5 7 11 9 -6 -8 0 9 12 12 12 11 9 8 8 7 8 8 8 7 8 8 9 9 6 7 8 8 8 9 9 10 10 11 10 9 7
16 11 10 11 8 2 -4 -8 -6 -2 2 3 2 -1 7 12 13 11 10 8 3 7 10 5 5 7 13 15 14 14 15 13 13 13 14 13 11 9 8 7 6 6 6 5 5 5 5 7 10 8 6 4 5 8
Height
5373 5379 5385 5393 5401 5409 5418 5427 5437 5446 5456 5466 5477 5488 5501 5515 5527 5540 5553 5563 5573 5585 5596 5608 5619 5633 5643 5658 5668 5679 5685 5693 5701 5708 5715 5722 5727 5733 5738 5742 5743 5746 5746 5747 5748 5750 5752 5749 5748 5751 5751 5751 5750 5749
5360 5366 5372 5379 5388 5396 5406 5417 5429 5439 5449 5460 5471 5483 5495 5509 5523 5536 5547 5558 5566 5578 5591 5598 5612 5631 5642 5659 5670 5674 5683 5691 5699 5706 5714 5719 5725 5731 5736 5738 5739 5742 5743 5745 5746 5747 5745 5745 5744 5746 5747 5746 5746 5745
5342 5347 5352 5359 5367 5378 5390 5403 5417 5430 5442 5453 5464 5477 5491 5507 5518 5530 5540 5551 5562 5575 5583 5592 5613 5626 5635 5643 5655 5667 5681 5692 5698 5705 5713 5718 5722 5728 5731 5734 5734 5737 5740 5740 5741 5742 5740 5739 5740 5742 5742 5742 5742 5741
5318 5321 5326 5333 5342 5353 5366 5383 5401 5418 5433 5446 5458 5472 5485 5498 5509 5524 5537 5548 5558 5568 5576 5590 5602 5616 5631 5638 5647 5662 5673 5683 5692 5700 5705 5708 5714 5720 5723 5727 5730 5735 5736 5736 5737 5736 5734 5735 5736 5736 5738 5738 5739 5737
5299 5303 5307 5313 5321 5330 5343 5360 5380 5402 5421 5437 5452 5464 5477 5489 5500 5513 5526 5538 5551 5567 5574 5586 5600 5612 5625 5637 5647 5656 5666 5676 5682 5689 5691 5698 5707 5712 5718 5722 5729 5731 5731 5731 5731 5730 5730 5730 5731 5732 5734 5734 5734 5733
5283 5284 5287 5292 5301 5313 5328 5343 5361 5383 5407 5427 5442 5455 5465 5475 5487 5500 5511 5525 5545 5554 5561 5577 5590 5605 5618 5629 5642 5651 5661 5669 5674 5678 5681 5693 5701 5707 5712 5720 5725 5725 5725 5726 5727 5726 5726 5726 5728 5728 5729 5730 5729 5729
5267 5266 5266 5270 5281 5295 5312 5330 5350 5367 5393 5415 5432 5446 5457 5469 5479 5493 5510 5528 5541 5547 5560 5573 5586 5600 5610 5623 5634 5645 5655 5661 5665 5670 5682 5692 5698 5701 5709 5718 5718 5720 5722 5722 5722 5723 5722 5722 5722 5723 5725 5726 5725 5724
5253 5248 5248 5253 5265 5282 5300 5320 5341 5358 5381 5407 5427 5443 5455 5459 5472 5481 5496 5515 5535 5546 5556 5567 5578 5592 5604 5617 5629 5640 5647 5654 5660 5671 5680 5687 5693 5698 5706 5712 5713 5716 5717 5717 5718 5718 5717 5717 5718 5719 5720 5720 5720 5720
5245 5237 5234 5240 5254 5276 5296 5315 5335 5352 5376 5402 5421 5436 5443 5456 5472 5486 5501 5519 5533 5545 5553 5562 5575 5586 5600 5614 5625 5634 5642 5648 5659 5668 5677 5683 5687 5693 5706 5705 5708 5712 5713 5713 5713 5713 5713 5713 5713 5713 5714 5715 5715 5715
5250 5246 5244 5246 5257 5276 5296 5316 5331 5352 5375 5395 5412 5422 5440 5456 5470 5484 5500 5511 5521 5532 5549 5563 5575 5589 5599 5609 5618 5628 5636 5645 5655 5666 5673 5676 5684 5694 5697 5699 5703 5707 5709 5710 5709 5708 5708 5708 5707 5706 5707 5708 5709 5710
5257 5258 5261 5267 5276 5288 5303 5316 5335 5356 5375 5384 5400 5422 5444 5457 5471 5483 5495 5504 5513 5529 5541 5558 5575 5589 5597 5608 5614 5623 5634 5644 5653 5663 5667 5673 5684 5690 5689 5694 5699 5703 5705 5705 5705 5704 5704 5703 5702 5701 5702 5702 5704 5704
5269 5273 5276 5282 5291 5301 5313 5329 5346 5366 5375 5389 5410 5427 5441 5455 5468 5479 5489 5500 5511 5525 5543 5558 5572 5583 5596 5604 5616 5627 5634 5642 5649 5659 5662 5671 5682 5680 5685 5691 5695 5698 5699 5699 5699 5698 5697 5697 5696 5695 5695 5697 5698 5698
5278 5284 5289 5296 5306 5319 5333 5347 5363 5377 5386 5404 5422 5439 5449 5460 5466 5475 5480 5495 5513 5530 5548 5559 5569 5579 5589 5602 5612 5621 5630 5638 5649 5653 5659 5672 5673 5677 5683 5687 5690 5692 5693 5693 5693 5692 5691 5690 5689 5689 5689 5691 5692 5692
5290 5296 5304 5313 5324 5336 5347 5360 5372 5383 5405 5420 5430 5441 5455 5468 5474 5488 5504 5518 5530 5543 5554 5561 5571 5579 5590 5600 5608 5618 5627 5635 5640 5646 5659 5666 5667 5674 5678 5682 5685 5687 5688 5688 5687 5686 5685 5684 5683 5684 5684 5686 5686 5686
5303 5310 5319 5328 5337 5346 5357 5367 5378 5393 5407 5421 5433 5447 5458 5473 5483 5494 5509 5522 5534 5546 5553 5559 5569 5580 5589 5597 5605 5612 5620 5625 5633 5648 5657 5660 5665 5670 5674 5677 5680 5682 5683 5682 5682 5681 5680 5678 5678 5678 5679 5680 5680 5679
5315 5321 5329 5337 5346 5354 5362 5377 5396 5411 5424 5435 5446 5457 5468 5476 5491 5505 5516 5525 5534 5542 5548 5557 5566 5574 5585 5593 5599 5607 5614 5623 5639 5647 5652 5656 5662 5666 5669 5672 5674 5676 5677 5678 5677 5676 5675 5673 5672 5672 5673 5674 5674 5673
5327 5333 5340 5349 5354 5360 5371 5391 5406 5417 5433 5444 5456 5465 5475 5487 5501 5514 5522 5529 5535 5541 5548 5557 5565 5574 5583 5590 5598 5606 5617 5629 5637 5644 5647 5652 5657 5661 5664 5666 5668 5670 5671 5672 5671 5671 5670 5669 5668 5668 5667 5666 5665 5664
5335 5341 5347 5357 5365 5371 5386 5403 5418 5427 5438 5448 5459 5472 5483 5491 5503 5511 5517 5526 5536 5543 5551 5559 5569 5576 5582 5590 5599 5610 5621 5628 5633 5637 5642 5647 5652 5655 5658 5660 5663 5664 5665 5665 5665 5665 5665 5665 5664 5663 5662 5661 5659 5658
5345 5352 5355 5365 5375 5387 5396 5411 5422 5432 5444 5453 5463 5473 5483 5492 5501 5513 5522 5529 5536 5543 5551 5558 5566 5575 5584 5594 5603 5612 5618 5623 5628 5632 5636 5641 5646 5649 5651 5654 5657 5659 5659 5659 5660 5660 5659 5659 5659 5658 5657 5656 5654 5651
5347 5358 5366 5374 5388 5398 5405 5413 5423 5435 5445 5456 5466 5476 5486 5497 5505 5514 5523 5530 5537 5544 5550 5558 5566 5575 5584 5594 5600 5606 5611 5615 5620 5627 5632 5636 5640 5643 5646 5649 5651 5652 5653 5654 5654 5654 5653 5653 5653 5651 5651 5650 5648 5646
5352 5363 5374 5384 5402 5409 5415 5422 5431 5440 5450 5460 5468 5478 5487 5497 5506 5516 5525 5531 5538 5543 5550 5557 5565 5574 5582 5589 5595 5600 5605 5609 5615 5620 5625 5629 5633 5637 5640 5642 5644 5645 5646 5647 5648 5648 5647 5646 5645 5644 5643 5642 5641 5639
5363 5374 5387 5395 5402 5413 5422 5428 5436 5446 5455 5464 5473 5483 5490 5500 5510 5518 5525 5532 5538 5545 5550 5557 5564 5570 5577 5584 5590 5595 5600 5605 5611 5615 5619 5623 5627 5630 5633 5635 5637 5638 5639 5640 5640 5641 5640 5638 5637 5636 5635 5635 5633 5632
5380 5387 5394 5399 5409 5418 5425 5433 5442 5451 5458 5467 5477 5487 5496 5504 5512 5518 5525 5531 5537 5543 5548 5554 5560 5566 5572 5579 5584 5590 5595 5600 5604 5608 5613 5617 5620 5623 5626 5628 5630 5631 5631 5632 5632 5632 5631 5630 5629 5628 5628 5627 5625 5623
5390 5395 5398 5404 5411 5418 5426 5435 5448 5456 5465 5472 5482 5492 5499 5506 5511 5517 5524 5530 5536 5539 5545 5550 5556 5562 5567 5573 5580 5585 5588 5593 5598 5602 5606 5611 5613 5616 5618 5621 5622 5623 5623 5623 5623 5622 5622 5622 5621 5620 5619 5618 5617 5614
5394 5399 5405 5410 5417 5426 5433 5442 5452 5459 5467 5476 5484 5491 5497 5505 5511 5516 5522 5527 5532 5537 5542 5548 5553 5558 5563 5567 5572 5577 5583 5587 5592 5595 5600 5603 5605 5607 5610 5612 5614 5614 5614 5614 5613 5613 5613 5612 5611 5609 5609 5608 5606 5604
5395 5401 5407 5412 5420 5428 5437 5446 5453 5461 5467 5473 5479 5486 5493 5499 5505 5512 5517 5522 5526 5531 5536 5542 5547 5551 5556 5561 5567 5572 5577 5581 5584 5588 5592 5595 5597 5599 5601 5603 5603 5604 5604 5604 5604 5604 5602 5601 5600 5599 5598 5597 5595 5593
5398 5404 5408 5415 5423 5432 5439 5445 5452 5459 5465 5472 5480 5486 5492 5496 5501 5507 5511 5514 5520 5525 5530 5535 5541 5545 5549 5554 5559 5565 5569 5572 5577 5581 5584 5586 5587 5588 5590 5591 5592 5593 5593 5593 5593 5593 5592 5591 5589 5587 5586 5585 5583 5581
5399 5404 5411 5419 5425 5432 5439 5446 5451 5456 5463 5469 5474 5480 5486 5492 5497 5501 5506 5511 5515 5521 5526 5530 5535 5539 5544 5549 5554 5558 5561 5564 5567 5570 5572 5574 5575 5577 5578 5580 5580 5581 5581 5581 5582 5582 5581 5579 5577 5575 5574 5572 5571 5569
5401 5407 5413 5419 5426 5432 5437 5443 5450 5455 5461 5466 5471 5476 5481 5484 5489 5494 5499 5505 5510 5514 5519 5523 5527 5531 5535 5538 5542 5545 5549 5552 5555 5558 5560 5561 5563 5564 5566 5567 5568 5569 5570 5570 5570 5569 5568 5567 5565 5564 5562 5560 5558 5557
5400 5405 5412 5418 5423 5428 5434 5439 5445 5450 5456 5462 5467 5472 5477 5481 5486 5490 5495 5498 5503 5507 5510 5514 5517 5521 5525 5528 5531 5534 5537 5540 5542 5545 5546 5547 5548 5550 5553 5554 5555 5555 5556 5556 5556 5556 5555 5553 5551 5549 5549 5548 5545 5543
5396 5401 5407 5413 5418 5425 5430 5436 5441 5446 5452 5456 5462 5467 5471 5475 5480 5485 5489 5492 5495 5498 5502 5505 5508 5510 5513 5516 5519 5522 5525 5527 5529 5531 5532 5533 5534 5535 5537 5539 5540 5540 5541 5541 5541 5540 5540 5539 5538 5536 5535 5534 5531 5529
5390 5395 5401 5406 5412 5417 5423 5429 5434 5440 5445 5450 5455 5459 5463 5467 5471 5476 5479 5482 5485 5487 5490 5493 5496 5498 5502 5505 5507 5509 5511 5513 5516 5518 5519 5520 5520 5521 5523 5523 5523 5524 5525 5526 5526 5525 5524 5524 5524 5521 5520 5519 5516 5514
5384 5389 5394 5399 5404 5410 5415 5421 5426 5431 5435 5439 5444 5449 5453 5457 5459 5461 5461 5464 5469 5472 5476 5480 5483 5486 5489 5492 5494 5496 5498 5499 5501 5502 5504 5506 5507 5508 5508 5508 5509 5510 5510 5509 5509 5509 5509 5508 5507 5506 5504 5502 5500 5499